カタログに戻る

GEESAT 2-09

運用中通信LEO
NORAD 58913·PAYLOAD·🇨🇳 China

打ち上げ Feb 2, 2024 から Xichang Satellite Launch Center

Loading…

次のパス (今後24時間)

TLE

最新Source: Space-Track

元期: Sep 14, 2026, 22:46 UTC

1 58913U 24023J   26257.94921232  .00001029  00000-0  15119-3 0  9993
2 58913  50.0040 298.4273 0021343 350.6777   9.3762 14.83441483142240

AllMySatでGEESAT 2-09をリアルタイム追跡

Download on the App Store